Time,TemperatureF,DewpointF,PressureIn,WindDirection,WindDirectionDegrees,WindSpeedMPH,WindSpeedGustMPH,Humidity,HourlyPrecipIn,Conditions,Clouds,dailyrainin,SolarRadiationWatts/m^2,SoftwareType,DateUTC
2013-07-13 00:01:00,48.0,38.0,-100.00,NW,305,8.0,13.0,68,0.00,,,0.00,0.000000,,2013-07-13 07:01:00,
2013-07-13 00:22:00,48.0,38.0,-100.00,NW,305,8.0,13.0,68,0.00,,,0.00,0.000000,,2013-07-13 07:22:00,
2013-07-13 00:33:00,48.0,38.0,-100.00,NW,305,8.0,13.0,68,0.00,,,0.00,0.000000,,2013-07-13 07:33:00,
2013-07-13 00:44:00,48.0,38.0,-100.00,NW,305,8.0,13.0,68,0.00,,,0.00,0.000000,,2013-07-13 07:44:00,
2013-07-13 00:53:00,48.0,38.0,-100.00,NW,305,8.0,13.0,68,0.00,,,0.00,0.000000,,2013-07-13 07:53:00,
2013-07-13 01:01:00,48.0,37.0,-100.00,NW,307,7.0,14.0,65,0.00,,,0.00,0.000000,,2013-07-13 08:01:00,
2013-07-13 01:33:00,48.0,37.0,-100.00,NW,307,7.0,14.0,65,0.00,,,0.00,0.000000,,2013-07-13 08:33:00,
2013-07-13 01:43:00,48.0,37.0,-100.00,NW,307,7.0,14.0,65,0.00,,,0.00,0.000000,,2013-07-13 08:43:00,
2013-07-13 01:52:00,48.0,37.0,-100.00,NW,307,7.0,14.0,65,0.00,,,0.00,0.000000,,2013-07-13 08:52:00,
2013-07-13 02:01:00,46.0,34.0,-100.00,WNW,287,3.0,10.0,63,0.00,,,0.00,0.000000,,2013-07-13 09:01:00,
2013-07-13 02:22:00,46.0,34.0,-100.00,WNW,287,3.0,10.0,63,0.00,,,0.00,0.000000,,2013-07-13 09:22:00,
2013-07-13 02:33:00,46.0,34.0,-100.00,WNW,287,3.0,10.0,63,0.00,,,0.00,0.000000,,2013-07-13 09:33:00,
2013-07-13 02:43:00,46.0,34.0,-100.00,WNW,287,3.0,10.0,63,0.00,,,0.00,0.000000,,2013-07-13 09:43:00,
2013-07-13 02:53:00,46.0,34.0,-100.00,WNW,287,3.0,10.0,63,0.00,,,0.00,0.000000,,2013-07-13 09:53:00,
2013-07-13 03:01:00,47.0,37.0,-100.00,West,268,3.0,7.0,67,0.00,,,-99.99,0.000000,,2013-07-13 10:01:00,
2013-07-13 03:32:00,47.0,37.0,-100.00,West,268,3.0,7.0,67,0.00,,,-99.99,0.000000,,2013-07-13 10:32:00,
2013-07-13 03:43:00,47.0,37.0,-100.00,West,268,3.0,7.0,67,0.00,,,-99.99,0.000000,,2013-07-13 10:43:00,
2013-07-13 03:52:00,47.0,37.0,-100.00,West,268,3.0,7.0,67,0.00,,,-99.99,0.000000,,2013-07-13 10:52:00,
2013-07-13 04:01:00,46.0,33.0,-100.00,North,350,2.0,5.0,61,0.00,,,0.00,0.000000,,2013-07-13 11:01:00,
2013-07-13 04:32:00,46.0,33.0,-100.00,North,350,2.0,5.0,61,0.00,,,0.00,0.000000,,2013-07-13 11:32:00,
2013-07-13 04:43:00,46.0,33.0,-100.00,North,350,2.0,5.0,61,0.00,,,0.00,0.000000,,2013-07-13 11:43:00,
2013-07-13 04:52:00,46.0,33.0,-100.00,North,350,2.0,5.0,61,0.00,,,0.00,0.000000,,2013-07-13 11:52:00,
2013-07-13 05:01:00,47.0,37.0,-100.00,North,0,5.0,9.0,68,0.00,,,0.00,0.000000,,2013-07-13 12:01:00,
2013-07-13 05:32:00,47.0,37.0,-100.00,North,0,5.0,9.0,68,0.00,,,0.00,0.000000,,2013-07-13 12:32:00,
2013-07-13 05:43:00,47.0,37.0,-100.00,North,0,5.0,9.0,68,0.00,,,0.00,0.000000,,2013-07-13 12:43:00,
2013-07-13 05:52:00,47.0,37.0,-100.00,North,0,5.0,9.0,68,0.00,,,0.00,0.000000,,2013-07-13 12:52:00,
2013-07-13 06:01:00,46.0,37.0,-100.00,NNE,30,3.0,7.0,72,0.00,,,0.00,0.000000,,2013-07-13 13:01:00,
2013-07-13 06:32:00,46.0,37.0,-100.00,NNE,30,3.0,7.0,72,0.00,,,0.00,0.000000,,2013-07-13 13:32:00,
2013-07-13 06:43:00,46.0,37.0,-100.00,NNE,30,3.0,7.0,72,0.00,,,0.00,0.000000,,2013-07-13 13:43:00,
2013-07-13 06:53:00,46.0,37.0,-100.00,NNE,30,3.0,7.0,72,0.00,,,0.00,0.000000,,2013-07-13 13:53:00,
2013-07-13 07:01:00,46.0,35.0,-100.00,North,350,6.0,8.0,65,0.00,,,0.00,5.000000,,2013-07-13 14:01:00,
2013-07-13 07:32:00,46.0,35.0,-100.00,North,350,6.0,8.0,65,0.00,,,0.00,5.000000,,2013-07-13 14:32:00,
2013-07-13 07:43:00,46.0,35.0,-100.00,North,350,6.0,8.0,65,0.00,,,0.00,5.000000,,2013-07-13 14:43:00,
2013-07-13 07:53:00,46.0,35.0,-100.00,North,350,6.0,8.0,65,0.00,,,0.00,5.000000,,2013-07-13 14:53:00,
2013-07-13 08:01:00,52.0,37.0,-100.00,NNE,32,4.0,9.0,56,0.00,,,0.00,101.000000,,2013-07-13 15:01:00,
2013-07-13 08:33:00,52.0,37.0,-100.00,NNE,32,4.0,9.0,56,0.00,,,0.00,101.000000,,2013-07-13 15:33:00,
2013-07-13 08:43:00,52.0,37.0,-100.00,NNE,32,4.0,9.0,56,0.00,,,0.00,101.000000,,2013-07-13 15:43:00,
2013-07-13 08:53:00,52.0,37.0,-100.00,NNE,32,4.0,9.0,56,0.00,,,0.00,101.000000,,2013-07-13 15:53:00,
2013-07-13 09:01:00,52.0,39.0,-100.00,NE,52,3.0,9.0,60,0.00,,,-99.99,295.000000,,2013-07-13 16:01:00,
2013-07-13 09:33:00,52.0,39.0,-100.00,NE,52,3.0,9.0,60,0.00,,,-99.99,295.000000,,2013-07-13 16:33:00,
2013-07-13 09:43:00,52.0,39.0,-100.00,NE,52,3.0,9.0,60,0.00,,,-99.99,295.000000,,2013-07-13 16:43:00,
2013-07-13 09:53:00,52.0,39.0,-100.00,NE,52,3.0,9.0,60,0.00,,,-99.99,295.000000,,2013-07-13 16:53:00,
2013-07-13 10:01:00,56.0,42.0,-100.00,NE,38,2.0,8.0,59,0.00,,,-99.99,497.000000,,2013-07-13 17:01:00,
2013-07-13 10:33:00,56.0,42.0,-100.00,NE,38,2.0,8.0,59,0.00,,,-99.99,497.000000,,2013-07-13 17:33:00,
2013-07-13 10:43:00,56.0,42.0,-100.00,NE,38,2.0,8.0,59,0.00,,,-99.99,497.000000,,2013-07-13 17:43:00,
2013-07-13 10:52:00,56.0,42.0,-100.00,NE,38,2.0,8.0,59,0.00,,,-99.99,497.000000,,2013-07-13 17:52:00,
2013-07-13 11:01:00,56.0,44.0,-100.00,NE,39,3.0,8.0,65,0.00,,,0.00,688.000000,,2013-07-13 18:01:00,
2013-07-13 11:32:00,56.0,44.0,-100.00,NE,39,3.0,8.0,65,0.00,,,0.00,688.000000,,2013-07-13 18:32:00,
2013-07-13 12:01:00,57.0,44.0,-100.00,NNE,26,4.0,11.0,61,0.00,,,0.00,852.000000,,2013-07-13 19:01:00,
2013-07-13 12:32:00,57.0,44.0,-100.00,NNE,26,4.0,11.0,61,0.00,,,0.00,852.000000,,2013-07-13 19:32:00,
2013-07-13 13:01:00,62.0,47.0,-100.00,NNE,26,7.0,13.0,59,-99.99,,,0.00,973.000000,,2013-07-13 20:01:00,
2013-07-13 13:33:00,62.0,47.0,-100.00,NNE,26,7.0,13.0,59,-99.99,,,0.00,973.000000,,2013-07-13 20:33:00,
2013-07-13 13:43:00,62.0,47.0,-100.00,NNE,26,7.0,13.0,59,-99.99,,,0.00,973.000000,,2013-07-13 20:43:00,
2013-07-13 13:52:00,62.0,47.0,-100.00,NNE,26,7.0,13.0,59,-99.99,,,0.00,973.000000,,2013-07-13 20:52:00,
2013-07-13 14:01:00,62.0,45.0,-100.00,WNW,303,7.0,17.0,54,0.00,,,0.00,1047.000000,,2013-07-13 21:01:00,
2013-07-13 14:22:00,62.0,45.0,-100.00,WNW,303,7.0,17.0,54,0.00,,,0.00,1047.000000,,2013-07-13 21:22:00,
2013-07-13 15:01:00,67.0,48.0,-100.00,NNE,17,10.0,17.0,51,-99.99,,,0.00,1067.000000,,2013-07-13 22:01:00,
2013-07-13 15:32:00,67.0,48.0,-100.00,NNE,17,10.0,17.0,51,-99.99,,,0.00,1067.000000,,2013-07-13 22:32:00,
2013-07-13 15:43:00,67.0,48.0,-100.00,NNE,17,10.0,17.0,51,-99.99,,,0.00,1067.000000,,2013-07-13 22:43:00,
2013-07-13 15:53:00,67.0,48.0,-100.00,NNE,17,10.0,17.0,51,-99.99,,,0.00,1067.000000,,2013-07-13 22:53:00,
2013-07-13 16:01:00,67.0,46.0,-100.00,North,4,11.0,20.0,46,0.00,,,0.00,1030.000000,,2013-07-13 23:01:00,
2013-07-13 16:32:00,67.0,46.0,-100.00,North,4,11.0,20.0,46,0.00,,,0.00,1030.000000,,2013-07-13 23:32:00,
2013-07-13 16:42:00,67.0,46.0,-100.00,North,4,11.0,20.0,46,0.00,,,0.00,1030.000000,,2013-07-13 23:42:00,
2013-07-13 16:53:00,67.0,46.0,-100.00,North,4,11.0,20.0,46,0.00,,,0.00,1030.000000,,2013-07-13 23:53:00,
2013-07-13 17:01:00,66.0,42.0,-100.00,NNE,27,10.0,18.0,42,0.00,,,0.00,941.000000,,2013-07-14 00:01:00,
2013-07-13 17:33:00,66.0,42.0,-100.00,NNE,27,10.0,18.0,42,0.00,,,0.00,941.000000,,2013-07-14 00:33:00,
2013-07-13 17:42:00,66.0,42.0,-100.00,NNE,27,10.0,18.0,42,0.00,,,0.00,941.000000,,2013-07-14 00:42:00,
2013-07-13 17:53:00,66.0,42.0,-100.00,NNE,27,10.0,18.0,42,0.00,,,0.00,941.000000,,2013-07-14 00:53:00,
2013-07-13 18:01:00,68.0,41.0,-100.00,WSW,243,8.0,22.0,37,0.00,,,0.00,803.000000,,2013-07-14 01:01:00,
2013-07-13 18:32:00,68.0,41.0,-100.00,WSW,243,8.0,22.0,37,0.00,,,0.00,803.000000,,2013-07-14 01:32:00,
2013-07-13 18:43:00,68.0,41.0,-100.00,WSW,243,8.0,22.0,37,0.00,,,0.00,803.000000,,2013-07-14 01:43:00,
2013-07-13 18:52:00,68.0,41.0,-100.00,WSW,243,8.0,22.0,37,0.00,,,0.00,803.000000,,2013-07-14 01:52:00,
2013-07-13 19:01:00,66.0,40.0,-100.00,NNE,21,11.0,21.0,38,0.00,,,0.00,630.000000,,2013-07-14 02:01:00,
2013-07-13 19:22:00,66.0,40.0,-100.00,NNE,21,11.0,21.0,38,0.00,,,0.00,630.000000,,2013-07-14 02:22:00,
2013-07-13 19:32:00,66.0,40.0,-100.00,NNE,21,11.0,21.0,38,0.00,,,0.00,630.000000,,2013-07-14 02:32:00,
2013-07-13 19:43:00,66.0,40.0,-100.00,NNE,21,11.0,21.0,38,0.00,,,0.00,630.000000,,2013-07-14 02:43:00,
2013-07-13 19:53:00,66.0,40.0,-100.00,NNE,21,11.0,21.0,38,0.00,,,0.00,630.000000,,2013-07-14 02:53:00,
2013-07-13 20:01:00,64.0,39.0,-100.00,ESE,120,7.0,22.0,39,0.00,,,0.00,431.000000,,2013-07-14 03:01:00,
2013-07-13 20:22:00,64.0,39.0,-100.00,ESE,120,7.0,22.0,39,0.00,,,0.00,431.000000,,2013-07-14 03:22:00,
2013-07-13 20:32:00,64.0,39.0,-100.00,ESE,120,7.0,22.0,39,0.00,,,0.00,431.000000,,2013-07-14 03:32:00,
2013-07-13 20:43:00,64.0,39.0,-100.00,ESE,120,7.0,22.0,39,0.00,,,0.00,431.000000,,2013-07-14 03:43:00,
2013-07-13 20:53:00,64.0,39.0,-100.00,ESE,120,7.0,22.0,39,0.00,,,0.00,431.000000,,2013-07-14 03:53:00,
2013-07-13 21:01:00,63.0,42.0,-100.00,SE,133,6.0,19.0,47,0.00,,,0.00,230.000000,,2013-07-14 04:01:00,
2013-07-13 21:32:00,63.0,42.0,-100.00,SE,133,6.0,19.0,47,0.00,,,0.00,230.000000,,2013-07-14 04:32:00,
2013-07-13 21:42:00,63.0,42.0,-100.00,SE,133,6.0,19.0,47,0.00,,,0.00,230.000000,,2013-07-14 04:42:00,
2013-07-13 21:54:00,63.0,42.0,-100.00,SE,133,6.0,19.0,47,0.00,,,0.00,230.000000,,2013-07-14 04:54:00,
2013-07-13 22:01:00,57.0,48.0,-100.00,NNE,26,11.0,20.0,72,0.00,,,0.00,54.000000,,2013-07-14 05:01:00,
2013-07-13 22:32:00,57.0,48.0,-100.00,NNE,26,11.0,20.0,72,0.00,,,0.00,54.000000,,2013-07-14 05:32:00,
2013-07-13 22:43:00,57.0,48.0,-100.00,NNE,26,11.0,20.0,72,0.00,,,0.00,54.000000,,2013-07-14 05:43:00,
2013-07-13 22:53:00,57.0,48.0,-100.00,NNE,26,11.0,20.0,72,0.00,,,0.00,54.000000,,2013-07-14 05:53:00,
2013-07-13 23:01:00,55.0,48.0,-100.00,NE,40,9.0,22.0,78,0.00,,,0.00,0.000000,,2013-07-14 06:01:00,
2013-07-13 23:22:00,55.0,48.0,-100.00,NE,40,9.0,22.0,78,0.00,,,0.00,0.000000,,2013-07-14 06:22:00,
2013-07-13 23:32:00,55.0,48.0,-100.00,NE,40,9.0,22.0,78,0.00,,,0.00,0.000000,,2013-07-14 06:32:00,
2013-07-13 23:42:00,55.0,48.0,-100.00,NE,40,9.0,22.0,78,0.00,,,0.00,0.000000,,2013-07-14 06:42:00,
2013-07-13 23:53:00,55.0,48.0,-100.00,NE,40,9.0,22.0,78,0.00,,,0.00,0.000000,,2013-07-14 06:53:00,